Regional Weather Roundup
Issued by NWS Newport/Morehead, NC

Current Version | Previous Version | Graphics & Text | Print | Product List | Glossary Off
Versions: 1 2 3 4 5 6 7 8 9 10 11 12 13 14 15 16 17 18 19 20 21 22 23 24 25 26 27 28 29 30 31 32 33 34 35 36 37 38 39 40 41 42 43 44 45 46 47 48 49 50

000
ASUS42 KMHX 192110
RWRMHX
WEATHER ROUNDUP FOR EASTERN NORTH CAROLINA
NATIONAL WEATHER SERVICE NEWPORT/MOREHEAD CITY NC
500 PM EDT SUN OCT 19 2014

NOTE: "FAIR" INDICATES FEW OR NO CLOUDS BELOW 12,000 FEET
WITH NO SIGNIFICANT WEATHER AND/OR OBSTRUCTIONS TO VISIBILITY

NCZ015>017-031-032-045>047-102-103-192200-
NORTH COAST

CITY           SKY/WX    TMP DP  RH WIND       PRES   REMARKS
EDENTON        SUNNY     64  38  38 N8        30.05R
ELIZABETH CITY SUNNY     64  35  34 NW13      30.04R
KITTY HAWK     CLEAR     62  38  41 N3        30.02R
MANTEO         SUNNY     62  40  44 W5        30.03S

$$

NCZ045>047-081-094-103-104-192200-
CENTRAL COAST

CITY           SKY/WX    TMP DP  RH WIND       PRES   REMARKS
FRISCO         SUNNY     63  43  48 N8        30.03R
SWANQUARTER      N/A     64 N/A N/A NW1G16    30.00S

$$

NCZ095-097-098-100-101-192200-
SOUTHERN COAST

CITY           SKY/WX    TMP DP  RH WIND       PRES   REMARKS
BEAUFORT       SUNNY     65  43  44 NW14      30.05R
CEDAR ISLAND     N/A     64 N/A N/A NW13      30.09R
JACKSONVILLE   SUNNY     66  42  41 NW9G17    30.05R
PINEY ISLAND   CLEAR     68  40  35 NW13      30.04R
WILMINGTON     SUNNY     68  43  40 NW10      30.05S


$$

NCZ011>013-027>030-043-044-078>080-089-090>093-098-192200-
COASTAL PLAIN

CITY           SKY/WX    TMP DP  RH WIND       PRES   REMARKS
AHOSKIE        SUNNY     61  39  43 NW3       30.05S
CLINTON        SUNNY     66  45  47 CALM      30.07S
ELIZABETHTOWN  SUNNY     66  42  40 W6        30.06S
GOLDSBORO      SUNNY     65  43  44 NW6       30.05S
GREENVILLE     SUNNY     64  41  42 NW5       30.08R
HAVELOCK       SUNNY     66  40  38 N10       30.06R
KENANSVILLE    SUNNY     65  40  40 NW6       30.07S
KINSTON        SUNNY     64  41  42 NW5       30.07R
NEW BERN       SUNNY     67  41  38 NW7       30.07R
RICHLANDS      SUNNY     64  39  39 NW6       30.06S
ROCKY MOUNT    SUNNY     64  40  41 NW9       30.06S
WASHINGTON     SUNNY     63  40  43 NW6       30.06S
WHITEVILLE     SUNNY     67  43  41 N3        30.06S

$$

AMZ130-135-150-152-154-156-158-170-250-252-270-ANZ085-086-088-633-658-670-192200-
MARINE OBSERVATIONS

STATION/POSITION TIME  TEMP    WIND        PRES    WAVE   SWELL
                       AIR SEA DIR/SP/G            HT/PER HT/PER
                 (UTC) (F)     (DEG/KT/KT) (MB)    (FT/S) (FT/S)
CHESAPEAKE LIGHT 2000   58     320/ 19/ 22 1017.1
64 E VA BEACH    2100   58 70  330/ 19/ 25 1015.8    7/ 7   2/10
DUCK             2100   61 70  320/ 13/ 16 1015.9
2 E DUCK         2100                        N/A     5/ 6   2/11
10 NE DUCK       2100      71                N/A     5/ 6   2/11
OREGON INLET     2100   62 69  300/ 12/ 17 1016.7
13E OREGON INLT  2100      75                N/A     6/ 7   2/17
HATTERAS CG      2100   63 68  340/ 13/ 16 1017.2
DIAMOND BUOY     2100   63     330/ 16/ 21 1016.8    5/10   3/10
17 S OCRACOKE    2000          VRB 16/ 19  1017.0
CAPE LOOKOUT     2000   64     340/ 10/ 12 1017.1
BEAUFORT LAB     2100   65 70  330/  6/ 10 1016.7
30 SE NEW RIVER  2100   65 77  330/ 12/ 16 1017.0    3/11   2/11
5 SE WRIGHTSVLE  2000   63 74  350/ 10/ 12   N/A
225 S CAPE HAT   2029   72 80  350/ 17/ 21 1015.8    7/ 7   3/10
41 SE CHARLESTON 2100   66 79   10/ 12/ 14 1017.6    4/ 6   3/ 6

$$



USA.gov is the U.S. government's official web portal to all federal, state and local government web resources and services.